Regional Weather Roundup
Issued by NWS

Home | Current Version | Previous Version | Graphics & Text | Print | Product List | Glossary On
Versions: 1 2 3 4 5 6 7 8 9 10 11 12 13 14 15 16 17 18 19 20 21 22 23 24 25 26 27 28 29 30 31 32 33 34 35 36 37 38 39 40 41 42 43 44 45 46 47 48 49 50
000
ASUS43 KLOT 171806
RWRIL

ILLINOIS REGIONAL WEATHER ROUNDUP
NATIONAL WEATHER SERVICE CHICAGO/ROMEOVILLE IL
100 PM CDT THU APR 17 2014

NOTE: "FAIR" INDICATES FEW OR NO CLOUDS BELOW 12,000 FEET WITH NO
SIGNIFICANT WEATHER AND/OR OBSTRUCTIONS TO VISIBILITY.

* THESE STATIONS ARE NOT UNDER NWS QUALITY CONTROL. THEY ALSO MAY NOT
  REPORT WEATHER SUCH AS PRECIPITATION OR FOG.

ILZ001-002-007-009-015-016-024-171900-
NORTHWEST ILLINOIS

CITY           SKY/WX    TMP DP  RH WIND       PRES   REMARKS
MOLINE         MOSUNNY   50  35  56 W12G18    30.24S
6HR MIN TEMP:  40; 6HR MAX TEMP:  50;

STERLING*      MOSUNNY   54  37  54 W10       30.22S
SAVANNA*       MOSUNNY   52  36  54 NW9       30.21S
$$

ILZ003-004-008-010-011-017-018-171900-
NORTH CENTRAL ILLINOIS

CITY           SKY/WX    TMP DP  RH WIND       PRES   REMARKS
ROCKFORD       CLOUDY    51  36  56 W9        30.23R
6HR MIN TEMP:  41; 6HR MAX TEMP:  52;

FREEPORT*      PTSUNNY   50  39  67 W6        30.22R
ROCHELLE*      PTSUNNY   54  38  55 W15G21    30.21S
DE KALB*       MOSUNNY   53  38  56 SW10G18   30.20S
$$

ILZ005-006-012>014-019>023-171900-
NORTHEAST ILLINOIS

CITY           SKY/WX    TMP DP  RH WIND       PRES   REMARKS
CHICAGO-OHARE  PTSUNNY   59  38  45 SW15G23   30.18S
CHICAGO-MIDWAY PTSUNNY   60  37  42 W17G23    30.19S
6HR MIN TEMP:  44; 6HR MAX TEMP:  60;

AURORA         MOSUNNY   56  39  53 SW13G18   30.20S
6HR MIN TEMP:  39; 6HR MAX TEMP:  56;

LANSING*       SUNNY     60  35  38 SW14G24   30.20S
WAUKEGAN       MOSUNNY   56  39  53 SW13G22   30.17R
6HR MIN TEMP:  43; 6HR MAX TEMP:  56;

DUPAGE AIRPORT MOSUNNY   57  40  52 W13G22    30.19R
6HR MIN TEMP:  40; 6HR MAX TEMP:  57;

KANKAKEE*      SUNNY     62  39  43 SW10G23   30.21S
WHEELING       MOSUNNY   58  39  49 SW15      30.19R
6HR MIN TEMP:  43; 6HR MAX TEMP:  58;

MORRIS*        PTSUNNY   58  34  41 SW8G17    30.21S
NORTHERLY ISL    N/A     58  33  39 SW10        N/A
$$

LMZ740>746-171900-
SOUTHERN LAKE MICHIGAN

STATION/POSITION SKY/WX   TEMP    WIND        PRES    VSBY  WAVE
                          AIR SEA DIR/SP/G                  HT/PER
                          (F)     (DEG/KT/KT) (MB)    (MI)  (FT/S)
WAUKEGAN HARBOR            54     240/ 14/ 19 1022.7R
HARRISON CRIB              55     210/ 16/ 21   N/A
BURNHAM HARBOR             58     190/ 10/ 17   N/A
CALUMET HARBOR             57     210/ 12/ 18 1022.9F
MICHIGAN CITY              57     200/ 17/ 22   N/A
$$

ILZ025>027-034>036-040-047-049-050-058-095>099-171900-
WEST-CENTRAL ILLINOIS

CITY           SKY/WX    TMP DP  RH WIND       PRES   REMARKS
QUINCY         PTSUNNY   50  36  58 W7        30.26F
GALESBURG*     PTSUNNY   47  37  67 W9        30.25F
MACOMB*        PTSUNNY   49  36  60 W3        30.28S
JACKSONVILLE*  PTSUNNY   55  38  52 SW3       30.26S
PITTSFIELD*    CLOUDY    52  38  59 NW7       30.28R
$$

ILZ028>032-037-038-041>044-048-051>054-059>061-171900-
CENTRAL ILLINOIS

CITY           SKY/WX    TMP DP  RH WIND       PRES   REMARKS
PONTIAC        MOSUNNY   61  37  41 SW9       30.22S
BLOOMINGTON    MOSUNNY   58  36  43 SW12      30.24S
DECATUR        PTSUNNY   60  37  42 W15       30.25S
PEORIA         MOSUNNY   54  38  54 NW9       30.24S
6HR MIN TEMP:  41; 6HR MAX TEMP:  55;

LACON*         PTSUNNY   54  38  56 W9        30.23S
LINCOLN*       PTSUNNY   61  37  41 SW3       30.24S
SPRINGFIELD    PTSUNNY   61  35  37 W14       30.25S
6HR MIN TEMP:  45; 6HR MAX TEMP:  61;

TAYLORVILLE    PTSUNNY   57  36  44 SW10      30.25F
$$

ILZ033-039-045-046-055>057-062-063-171900-
EAST-CENTRAL ILLINOIS

CITY           SKY/WX    TMP DP  RH WIND       PRES   REMARKS
CHAMPAIGN      PTSUNNY   64  36  35 SW18      30.23F
RANTOUL*       MOSUNNY   63  35  35 SW5G18    30.24S
MATTOON        PTSUNNY   62  37  39 S13       30.24F
PARIS*         PTSUNNY   64  37  37 S10G20    30.26S
$$

ILZ079-100>102-171900-
SOUTHWEST ILLINOIS

CITY           SKY/WX    TMP DP  RH WIND       PRES   REMARKS
ALTON          PTSUNNY   63  32  31 W86       30.25F
BELLEVILLE     PTSUNNY   65  38  36 S9        30.24F
CAHOKIA*       PTSUNNY   65  39  38 SW5       30.24F
SPARTA*        CLOUDY    63  34  34 S6        30.26F
$$

ILZ064>066-069>071-074>076-080>082-084>086-088>090-092>094-171900-
SOUTH-CENTRAL ILLINOIS

CITY           SKY/WX    TMP DP  RH WIND       PRES   REMARKS
CARBONDALE     MOSUNNY   65  36  34 SW12      30.26F
6HR MIN TEMP:  33; 6HR MAX TEMP:  65;

CAIRO*         SUNNY     66  42  41 S8        30.28F
MARION         MOSUNNY   64  37  36 S9        30.28F
MT. VERNON     PTSUNNY   64  37  36 S10G16    30.27F
CENTRALIA*       N/A     64  33  32 SW5       30.25F
SALEM*         CLOUDY    64  39  39 SW10      30.26F
METROPOLIS*    SUNNY     64  36  35 CALM      30.28F
$$

ILZ067-068-072-073-078-083-087-091-171900-
SOUTHEAST ILLINOIS

CITY           SKY/WX    TMP DP  RH WIND       PRES   REMARKS
FAIRFIELD*     PTSUNNY   64  39  39 S13       30.27F
HARRISBURG*    MOSUNNY   65  37  35 SW10      30.29F
ROBINSON*      PTSUNNY   65  39  39 SW13      30.29F
CARMI*         MOSUNNY   65  43  44 S12       30.29F
$$

ABBREVIATIONS USED IN REMARKS
   TC - TEMPERATURE IN CELSIUS
  WCI - WIND CHILL INDEX
   HX - HEAT INDEX
  VSB - VISIBILITY
$$




USA.gov is the U.S. government's official web portal to all federal, state and local government web resources and services.